Terminal Aerodrome Forecast
Issued by NWS

Home | Current Version | Previous Version | Text Only | Print | Product List | Glossary On
Versions: 1 2 3 4 5 6 7 8 9 10 11 12 13 14 15 16 17
350
FTUS43 KGRR 170815 AAA
TAFBTL
TAF AMD
KBTL 170815Z 1708/1806 14008KT 4SM RA BR VCTS OVC003CB
     FM171215 20006KT 1SM -RA BR OVC002
     FM171800 26010KT 3SM BR OVC005
     FM172200 26010KT 2SM -RA BR OVC005
     FM180500 26009KT 2SM BR OVC005=

USA.gov is the U.S. government's official web portal to all federal, state and local government web resources and services.